TimeEST,TemperatureF,Dew PointF,Humidity,Sea Level PressureIn,VisibilityMPH,Wind Direction,Wind SpeedMPH,Gust SpeedMPH,PrecipitationIn,Events,Conditions,WindDirDegrees,DateUTC
12:56 AM,39.0,27.0,62,30.11,10.0,NNW,10.4,-,N/A,,Clear,340,2013-03-07 05:56:00
1:56 AM,37.9,28.0,68,30.14,10.0,NNW,9.2,-,N/A,,Clear,330,2013-03-07 06:56:00
2:56 AM,36.0,27.0,70,30.13,10.0,NNW,9.2,-,N/A,,Clear,340,2013-03-07 07:56:00
3:56 AM,36.0,27.0,70,30.16,10.0,NW,8.1,-,N/A,,Clear,320,2013-03-07 08:56:00
4:56 AM,34.0,27.0,75,30.16,10.0,NNW,8.1,-,N/A,,Clear,330,2013-03-07 09:56:00
5:56 AM,30.9,26.1,82,30.17,10.0,North,8.1,-,N/A,,Clear,350,2013-03-07 10:56:00
6:56 AM,34.0,27.0,75,30.20,10.0,NNW,9.2,-,N/A,,Clear,330,2013-03-07 11:56:00
7:56 AM,39.9,28.9,65,30.23,10.0,North,9.2,-,N/A,,Clear,350,2013-03-07 12:56:00
8:56 AM,45.0,28.9,53,30.23,10.0,North,12.7,-,N/A,,Clear,360,2013-03-07 13:56:00
9:56 AM,48.9,28.0,44,30.24,10.0,North,9.2,-,N/A,,Partly Cloudy,360,2013-03-07 14:56:00
10:56 AM,51.1,27.0,39,30.22,10.0,NNE,9.2,-,N/A,,Partly Cloudy,20,2013-03-07 15:56:00
11:56 AM,55.0,27.0,34,30.21,10.0,NNW,8.1,-,N/A,,Partly Cloudy,340,2013-03-07 16:56:00
12:56 PM,57.9,28.0,32,30.17,10.0,NW,8.1,-,N/A,,Partly Cloudy,320,2013-03-07 17:56:00
1:56 PM,57.0,27.0,32,30.14,10.0,Variable,5.8,-,N/A,,Partly Cloudy,0,2013-03-07 18:56:00
2:56 PM,61.0,28.0,29,30.14,10.0,NW,9.2,-,N/A,,Partly Cloudy,320,2013-03-07 19:56:00
3:56 PM,61.0,28.0,29,30.13,10.0,WNW,6.9,17.3,N/A,,Partly Cloudy,290,2013-03-07 20:56:00
4:56 PM,60.1,28.9,31,30.13,10.0,WNW,6.9,-,N/A,,Partly Cloudy,290,2013-03-07 21:56:00
5:56 PM,57.0,28.9,34,30.14,10.0,NW,8.1,-,N/A,,Partly Cloudy,310,2013-03-07 22:56:00
6:56 PM,52.0,30.0,43,30.17,10.0,NNW,4.6,-,N/A,,Partly Cloudy,330,2013-03-07 23:56:00
7:56 PM,50.0,30.9,48,30.18,10.0,Calm,Calm,-,N/A,,Clear,0,2013-03-08 00:56:00
8:56 PM,48.9,32.0,52,30.20,10.0,Calm,Calm,-,N/A,,Clear,0,2013-03-08 01:56:00
9:56 PM,45.0,33.1,63,30.21,10.0,Calm,Calm,-,N/A,,Clear,0,2013-03-08 02:56:00
10:56 PM,41.0,34.0,76,30.21,10.0,Calm,Calm,-,N/A,,Clear,0,2013-03-08 03:56:00
11:56 PM,39.0,33.1,79,30.21,10.0,Calm,Calm,-,N/A,,Clear,0,2013-03-08 04:56:00